Regional Weather Roundup
Issued by NWS

Home | Current Version | Previous Version | Text Only | Print | Product List | Glossary Off
Versions: 1 2 3 4 5 6 7 8 9 10 11 12 13 14 15 16 17 18 19 20 21 22 23 24 25 26 27 28 29 30 31 32 33 34 35 36 37 38 39 40 41 42 43 44 45 46 47 48 49 50

000
ASUS43 KBIS 271201
RWRND

NORTH DAKOTA REGIONAL WEATHER ROUNDUP
NATIONAL WEATHER SERVICE BISMARCK ND
600 AM CST FRI FEB 27 2015

NOTE: "FAIR" INDICATES FEW OR NO CLOUDS BELOW 12,000 FEET WITH NO
SIGNIFICANT WEATHER AND/OR OBSTRUCTIONS TO VISIBILITY.


NDZ001>003-009>011-017-271300-
NORTHWEST NORTH DAKOTA

CITY           SKY/WX    TMP DP  RH WIND       PRES   REMARKS
WILLISTON        N/A    -14 -18  82 CALM      30.30F
6HR MIN TEMP: -16; 6HR MAX TEMP:  -8;

MINOT          PTCLDY    -9 -14  78 SW9       30.35S WCI -26
MINOT AFB      PTCLDY   -12 -16  81 CALM      30.35F
$$

NDZ018>021-031>035-040>046-271300-
SOUTHWEST NORTH DAKOTA

CITY           SKY/WX    TMP DP  RH WIND       PRES   REMARKS
BISMARCK       PTCLDY   -13 -17  82 SE3       30.42F
6HR MIN TEMP: -15; 6HR MAX TEMP:  -6;

DICKINSON      CLEAR     -8 -14  74 S9        30.25F WCI -25
GARRISON         N/A    -15 -21  74 CALM      30.36S
6HR MIN TEMP: -16; 6HR MAX TEMP: -10;

HETTINGER ARPT PTCLDY    -6 -11  79 SE7       30.28F WCI -20
$$

NDZ004>008-012>016-024-026-027-054-271300-
NORTHEAST NORTH DAKOTA

CITY           SKY/WX    TMP DP  RH WIND       PRES   REMARKS
GRAND FORKS    PTCLDY   -11 -17  75 SW3       30.45R
GRND FRKS AFB  PTCLDY   -12 -19  71 W5        30.44S WCI -24
DEVILS LAKE    PTCLDY   N/A N/A N/A MISG        N/A
$$

NDZ022-023-025-028>030-036>039-047>053-271300-
SOUTHEAST NORTH DAKOTA

CITY           SKY/WX    TMP DP  RH WIND       PRES   REMARKS
FARGO          PTCLDY   -11 -17  75 S8        30.49S WCI -28
6HR MIN TEMP: -12; 6HR MAX TEMP:  -5;

JAMESTOWN      PTCLDY   -12 -16  82 W3        30.41F
$$




USA.gov is the U.S. government's official web portal to all federal, state and local government web resources and services.